This is the latest recevied weather packets stored in our database for station/object KB0Y. If no packets are shown the sender has not sent any weather packets the latest 10 day(s).
| Time | Temp. | Humidity | Pressure | Rain* | Wind** | Luminosity | Snow |
|---|---|---|---|---|---|---|---|
| 1777648658 | 21.67° C | 71% | 1017.2 hPa | 0 mm | - | 230 W/m² | - |
| 1777648354 | 21.67° C | 72% | 1017.2 hPa | 0 mm | - | 208 W/m² | - |
| 1777648050 | 21.67° C | 73% | 1017.2 hPa | 0 mm | - | 163 W/m² | - |
| 1777647746 | 21.67° C | 74% | 1016.9 hPa | 0 mm | - | 152 W/m² | - |
| 1777647443 | 21.67° C | 75% | 1016.9 hPa | 0 mm | - | 168 W/m² | - |
| 1777647141 | 21.67° C | 74% | 1017.2 hPa | 0 mm | - | 176 W/m² | - |
| 1777646533 | 21.67° C | 74% | 1017.2 hPa | 0 mm | - | 129 W/m² | - |
| 1777646229 | 21.67° C | 73% | 1017.2 hPa | 0 mm | - | 150 W/m² | - |
| 1777645926 | 21.11° C | 73% | 1017.2 hPa | 0 mm | - | 174 W/m² | - |
| 1777645623 | 21.11° C | 74% | 1017.2 hPa | 0 mm | - | 119 W/m² | - |
| 1777645319 | 21.11° C | 73% | 1017.2 hPa | 0 mm | - | 109 W/m² | - |
| 1777645014 | 21.11° C | 73% | 1017.2 hPa | 0 mm | - | 150 W/m² | - |
| 1777644712 | 21.11° C | 74% | 1017.2 hPa | 0 mm | - | 151 W/m² | - |
| 1777644409 | 21.11° C | 75% | 1016.6 hPa | 0 mm | - | 95 W/m² | - |
| 1777644105 | 21.11° C | 75% | 1017.2 hPa | 0 mm | - | 82 W/m² | - |
| 1777643802 | 21.11° C | 75% | 1017.2 hPa | 0 mm | - | 97 W/m² | - |
| 1777643499 | 21.11° C | 76% | 1017.2 hPa | 0 mm | - | 89 W/m² | - |
| 1777643196 | 21.11° C | 76% | 1017.2 hPa | 0 mm | - | 79 W/m² | - |
| 1777642893 | 21.11° C | 75% | 1017.2 hPa | 0 mm | - | 116 W/m² | - |
| 1777642590 | 21.11° C | 75% | 1017.2 hPa | 0 mm | - | 172 W/m² | - |
| 1777642286 | 20.56° C | 75% | 1017.2 hPa | 0 mm | - | 129 W/m² | - |
| 1777641983 | 20.56° C | 76% | 1017.2 hPa | 0 mm | - | 145 W/m² | - |
| 1777641679 | 20.56° C | 76% | 1016.9 hPa | 0 mm | - | 90 W/m² | - |
| 1777641374 | 20.56° C | 77% | 1016.9 hPa | 0 mm | - | 155 W/m² | - |
| 1777641069 | 20.56° C | 77% | 1016.6 hPa | 0 mm | - | 107 W/m² | - |
* Rain latest hour (hover to see other rain measurements)
** Current wind speed in m/s (hover to see current wind gust speed)